• In Netherlands
  • List of Countries
  • For 7 days
  • Water Temperature
  • Satellite Maps
  • Weather Map
  • Weather Widgets
  • user-avatar
    Login

    Hourly Weather Dinagepoor

    Today, 16 January, Monday

    Time Temperature Precipitation Wind Pressure Humidity
    00:00 +15°C° 0 mm 2 mps 759 mmHg 44%
    01:00 +15°C° 0 mm 2 mps 758 mmHg 45%
    02:00 +14°C° 0 mm 2 mps 758 mmHg 47%
    03:00 +14°C° 0 mm 2 mps 758 mmHg 48%
    04:00 +13°C° 0 mm 2 mps 758 mmHg 50%
    05:00 +13°C° 0 mm 1 mps 758 mmHg 52%
    06:00 +12°C° 0 mm 1 mps 758 mmHg 55%
    07:00 +14°C° 0 mm 1 mps 759 mmHg 49%
    08:00 +16°C° 0 mm 1 mps 759 mmHg 44%
    09:00 +19°C° 0 mm 1 mps 760 mmHg 39%
    10:00 +20°C° 0 mm 2 mps 760 mmHg 33%
    11:00 +23°C° 0 mm 2 mps 759 mmHg 27%
    12:00 +26°C° 0 mm 2 mps 759 mmHg 21%
    13:00 +26°C° 0 mm 2 mps 759 mmHg 19%
    14:00 +27°C° 0 mm 2 mps 758 mmHg 18%
    15:00 +27°C° 0 mm 3 mps 757 mmHg 17%
    16:00 +25°C° 0 mm 2 mps 757 mmHg 21%
    17:00 +23°C° 0 mm 2 mps 757 mmHg 25%
    18:00 +19°C° 0 mm 2 mps 757 mmHg 30%
    19:00 +18°C° 0 mm 2 mps 757 mmHg 32%
    20:00 +18°C° 0 mm 2 mps 757 mmHg 35%
    21:00 +17°C° 0 mm 2 mps 758 mmHg 38%
    22:00 +16°C° 0 mm 2 mps 758 mmHg 40%
    23:00 +16°C° 0 mm 1 mps 758 mmHg 42%

    Tomorrow, 17 January, Tuesday

    Time Temperature Precipitation Wind Pressure Humidity
    00:00 +15°C° 0 mm 1 mps 758 mmHg 44%
    01:00 +15°C° 0 mm 1 mps 757 mmHg 46%
    02:00 +14°C° 0 mm 1 mps 757 mmHg 49%
    03:00 +14°C° 0 mm 1 mps 757 mmHg 51%
    04:00 +13°C° 0 mm 1 mps 757 mmHg 54%
    05:00 +12°C° 0 mm 1 mps 757 mmHg 58%
    06:00 +12°C° 0 mm 1 mps 757 mmHg 62%
    07:00 +14°C° 0 mm 1 mps 758 mmHg 54%
    08:00 +18°C° 0 mm 1 mps 758 mmHg 46%
    09:00 +18°C° 0 mm 0 mps 759 mmHg 38%
    10:00 +23°C° 0 mm 1 mps 759 mmHg 33%
    11:00 +25°C° 0 mm 1 mps 759 mmHg 28%
    12:00 +27°C° 0 mm 1 mps 759 mmHg 22%
    13:00 +28°C° 0 mm 1 mps 759 mmHg 21%
    14:00 +28°C° 0 mm 2 mps 758 mmHg 20%
    15:00 +28°C° 0 mm 2 mps 757 mmHg 19%
    16:00 +26°C° 0 mm 2 mps 757 mmHg 24%
    17:00 +24°C° 0 mm 2 mps 757 mmHg 29%
    18:00 +20°C° 0 mm 2 mps 757 mmHg 34%
    19:00 +19°C° 0 mm 2 mps 758 mmHg 36%
    20:00 +19°C° 0 mm 2 mps 758 mmHg 39%
    21:00 +18°C° 0 mm 2 mps 759 mmHg 41%
    22:00 +18°C° 0 mm 1 mps 759 mmHg 42%
    23:00 +16°C° 0 mm 1 mps 759 mmHg 43%

    Day after tomorrow, 18 January, Wednesday

    Time Temperature Precipitation Wind Pressure Humidity
    00:00 +16°C° 0 mm 1 mps 759 mmHg 43%
    01:00 +15°C° 0 mm 1 mps 759 mmHg 45%
    02:00 +14°C° 0 mm 1 mps 759 mmHg 46%
    03:00 +14°C° 0 mm 1 mps 759 mmHg 47%
    04:00 +13°C° 0 mm 1 mps 759 mmHg 48%
    05:00 +13°C° 0 mm 1 mps 759 mmHg 49%
    06:00 +13°C° 0 mm 1 mps 759 mmHg 51%
    07:00 +15°C° 0 mm 1 mps 760 mmHg 46%
    08:00 +19°C° 0 mm 1 mps 761 mmHg 41%
    09:00 +21°C° 0 mm 1 mps 762 mmHg 36%
    10:00 +23°C° 0 mm 1 mps 762 mmHg 31%
    11:00 +26°C° 0 mm 1 mps 762 mmHg 27%
    12:00 +28°C° 0 mm 1 mps 761 mmHg 22%
    13:00 +28°C° 0 mm 2 mps 761 mmHg 21%
    14:00 +29°C° 0 mm 2 mps 760 mmHg 19%
    15:00 +29°C° 0 mm 2 mps 759 mmHg 18%
    16:00 +27°C° 0 mm 2 mps 759 mmHg 22%
    17:00 +24°C° 0 mm 2 mps 759 mmHg 26%
    18:00 +21°C° 0 mm 2 mps 759 mmHg 30%
    19:00 +20°C° 0 mm 2 mps 760 mmHg 32%
    20:00 +19°C° 0 mm 2 mps 760 mmHg 34%
    21:00 +19°C° 0 mm 1 mps 761 mmHg 36%
    22:00 +19°C° 0 mm 1 mps 761 mmHg 38%
    23:00 +18°C° 0 mm 1 mps 761 mmHg 40%

    19 January, Thursday

    Time Temperature Precipitation Wind Pressure Humidity
    00:00 +16°C° 0 mm 1 mps 761 mmHg 42%
    01:00 +16°C° 0 mm 1 mps 760 mmHg 44%
    02:00 +15°C° 0 mm 1 mps 760 mmHg 46%
    03:00 +15°C° 0 mm 1 mps 760 mmHg 48%
    04:00 +15°C° 0 mm 1 mps 760 mmHg 49%
    05:00 +14°C° 0 mm 1 mps 760 mmHg 50%
    06:00 +14°C° 0 mm 1 mps 760 mmHg 51%
    07:00 +16°C° 0 mm 1 mps 761 mmHg 45%
    08:00 +19°C° 0 mm 1 mps 762 mmHg 40%
    09:00 +22°C° 0 mm 1 mps 762 mmHg 35%
    10:00 +24°C° 0 mm 1 mps 762 mmHg 30%
    11:00 +26°C° 0 mm 1 mps 762 mmHg 25%
    12:00 +29°C° 0 mm 1 mps 761 mmHg 21%
    13:00 +29°C° 0 mm 2 mps 760 mmHg 19%
    14:00 +30°C° 0 mm 2 mps 760 mmHg 18%
    15:00 +30°C° 0 mm 2 mps 759 mmHg 17%
    16:00 +28°C° 0 mm 2 mps 759 mmHg 21%
    17:00 +25°C° 0 mm 2 mps 759 mmHg 25%
    18:00 +21°C° 0 mm 2 mps 759 mmHg 29%
    19:00 +21°C° 0 mm 2 mps 759 mmHg 32%
    20:00 +20°C° 0 mm 2 mps 760 mmHg 35%
    21:00 +19°C° 0 mm 2 mps 760 mmHg 38%
    22:00 +18°C° 0 mm 2 mps 760 mmHg 40%
    23:00 +18°C° 0 mm 2 mps 760 mmHg 42%

    20 January, Friday

    Time Temperature Precipitation Wind Pressure Humidity
    00:00 +17°C° 0 mm 2 mps 760 mmHg 44%
    01:00 +16°C° 0 mm 2 mps 760 mmHg 46%
    02:00 +16°C° 0 mm 2 mps 760 mmHg 48%
    03:00 +15°C° 0 mm 2 mps 760 mmHg 50%
    04:00 +15°C° 0 mm 1 mps 760 mmHg 52%
    05:00 +14°C° 0 mm 1 mps 759 mmHg 54%
    06:00 +14°C° 0 mm 1 mps 759 mmHg 57%
    07:00 +16°C° 0 mm 1 mps 760 mmHg 51%
    08:00 +19°C° 0 mm 1 mps 761 mmHg 45%
    09:00 +21°C° 0 mm 1 mps 761 mmHg 39%
    10:00 +23°C° 0 mm 1 mps 761 mmHg 33%
    11:00 +26°C° 0 mm 1 mps 761 mmHg 27%
    12:00 +28°C° 0 mm 1 mps 761 mmHg 21%
    13:00 +29°C° 0 mm 2 mps 760 mmHg 20%
    14:00 +29°C° 0 mm 2 mps 759 mmHg 19%
    15:00 +30°C° 0 mm 2 mps 758 mmHg 17%
    16:00 +27°C° 0 mm 2 mps 758 mmHg 22%
    17:00 +25°C° 0 mm 2 mps 758 mmHg 26%
    18:00 +21°C° 0 mm 2 mps 758 mmHg 31%
    19:00 +20°C° 0 mm 2 mps 759 mmHg 34%
    20:00 +19°C° 0 mm 2 mps 759 mmHg 37%
    21:00 +18°C° 0 mm 2 mps 760 mmHg 40%
    22:00 +18°C° 0 mm 2 mps 760 mmHg 41%
    23:00 +17°C° 0 mm 2 mps 760 mmHg 42%

    21 January, Saturday

    Time Temperature Precipitation Wind Pressure Humidity
    00:00 +17°C° 0 mm 2 mps 760 mmHg 43%
    01:00 +16°C° 0 mm 2 mps 760 mmHg 44%
    02:00 +16°C° 0 mm 2 mps 760 mmHg 44%
    03:00 +15°C° 0 mm 2 mps 760 mmHg 45%
    04:00 +15°C° 0 mm 1 mps 760 mmHg 46%
    05:00 +14°C° 0 mm 1 mps 760 mmHg 47%
    06:00 +13°C° 0 mm 1 mps 760 mmHg 49%
    07:00 +16°C° 0 mm 1 mps 760 mmHg 43%
    08:00 +19°C° 0 mm 1 mps 761 mmHg 38%
    09:00 +21°C° 0 mm 1 mps 762 mmHg 32%
    10:00 +24°C° 0 mm 1 mps 761 mmHg 28%
    11:00 +26°C° 0 mm 1 mps 761 mmHg 23%
    12:00 +29°C° 0 mm 1 mps 761 mmHg 19%
    13:00 +29°C° 0 mm 2 mps 760 mmHg 18%
    14:00 +30°C° 0 mm 2 mps 759 mmHg 17%
    15:00 +30°C° 0 mm 2 mps 759 mmHg 16%
    16:00 +28°C° 0 mm 2 mps 759 mmHg 20%
    17:00 +25°C° 0 mm 2 mps 759 mmHg 24%
    18:00 +23°C° 0 mm 2 mps 759 mmHg 28%
    19:00 +21°C° 0 mm 2 mps 759 mmHg 30%
    20:00 +20°C° 0 mm 2 mps 760 mmHg 33%
    21:00 +19°C° 0 mm 2 mps 760 mmHg 35%
    22:00 +18°C° 0 mm 2 mps 760 mmHg 37%
    23:00 +17°C° 0 mm 2 mps 760 mmHg 39%
    Show more